[轉播] 四局上 喵 2:6 爪

看板 Lions
作者
時間
留言 109則留言,48人參與討論
推噓 35  ( 42推 7噓 60→ )
陳鏞基 中飛 唐肇廷 內安 郭阜林 三振 林祐樂 左中外野兩分砲 林祖傑 左安 羅國龍 三振 -- ※ 發信站: 批踢踢實業坊(ptt.cc), 來自: 39.10.168.8 (臺灣) ※ 文章網址: https://www.ptt.cc/bbs/Lions/M.1563618690.A.601.html
1Fshalu: 對方投手我不認得 但我相信四分差還是有機會追回07/20 18:33
2Ftsukinohi: 開啟出局如風趕下班模式嗎QQ07/20 18:33
3FKEVIN081691: 還沒放棄啊加油07/20 18:33
4Fshalu: 被NP了才是07/20 18:33
5Fsjm9968: 主審別來鬧07/20 18:34
6Faalittle: 強襲07/20 18:34
7Fymca0135: 查理王!!07/20 18:34
8Fshalu: 主動換投 可以是選項 但我相信後援也不會好到哪XD07/20 18:34
9FDoraemon9487: 暖唐07/20 18:35
10Fliongood93: 還好投手看起來沒事07/20 18:35
11Fgogkc: 快艇 穩了07/20 18:35
12Fjack51216: 我覺得可以換江了07/20 18:35
13Fshalu: 蔡鍾真的好吵 許久沒聽他們轉播 XDDD07/20 18:35
14Fliongood93: 每次看到這種強襲都會怕07/20 18:36
15FHocity: 每次看到鍾播就會慶幸好險他不是喵隊的主場球評,這種水07/20 18:36
16FHocity: 準07/20 18:36
17Fgogkc: 醬汁就要去外送!07/20 18:38
18Fshalu: 這局把差距拉在四分內 就有主動換投的空間07/20 18:39
19Fgirl10319: -0 K07/20 18:40
20Ffaracross: 這球…07/20 18:40
21Fd123120: ...07/20 18:40
22Fymca0135: 紅中閃球07/20 18:40
23Fshalu: ..................好球 07/20 18:40
24Fchihow: 打擊率又要比身高低了 07/20 18:40
25Fliongood93: 讚啦金達 07/20 18:41
26Fymca0135: 猜錯了 07/20 18:41
27Fnozomi9: 主審好棒棒 07/20 18:41
28FHelloBabe: 讚哦主審 07/20 18:41
29FHocity: -0k這球就三振XD 07/20 18:41
30Fgirl10319: 真的,讓我們繼續不能噴主審哦^^ 07/20 18:41
31Fymca0135: 主審確實蠻屌的 07/20 18:41
32Ftsukinohi: 主審真的莫名其妙 07/20 18:41
33Fhankwu: 要不要頭部觸身球也判好球啊 太扯了吧 07/20 18:41
34Fshalu: 不過是有破壞的空間 郭沒去破壞 07/20 18:41
35Fliongood93: 這球好球 沒問題 問題是剛剛到底為什麼保送???? 07/20 18:41
36Fgirl10319: 祐樂炸了 07/20 18:41
37Ffaracross: 炸 07/20 18:42
38Fymca0135: HR 07/20 18:42
39Fliongood93: HRRrrr 07/20 18:42
40Fotz870705: !! 07/20 18:42
41Foceanman: 爽 07/20 18:42
42FBenShiuan: HRRRRRRRRRRRRRR 07/20 18:42
43Fshalu: 水啦07/20 18:42
44Fs1188112000: 爽 07/20 18:42
45Fid543: 水喔 07/20 18:42
46Fjulienosmile: 哇!祐樂!!!!!! 07/20 18:42
47Fotz870705: 爽啦 07/20 18:42
48FHelloBabe: 祐樂很棒 07/20 18:42
49Fchihow: 爽 真的很悶! 07/20 18:42
50Fgogkc: 哈哈哈 07/20 18:42
51Fnybbnan: 炸裂 哈 07/20 18:42
52Foceanman: 少一分 07/20 18:42
53Fkevinsz7: 爽啦 07/20 18:42
54Fjennyengine: 耶耶耶 07/20 18:42
55Fymca0135: 打臉自殺棒XD 07/20 18:42
56Fkiller1: 水喔 有希望 07/20 18:42
57Fghit699: 祐樂! 07/20 18:42
58Fspace3029: 我正在想出去就6比4了,然後就......!!!07/20 18:42
59Fjulienosmile: 今天的後段棒次太猛了吧XD 07/20 18:42
60Fueiueiuei: 神 07/20 18:42
61Fshalu: 下一局可以主動換投 或是再讓喵謙偷一兩個人次試看看 07/20 18:43
62Fgirl10319: 祖傑 H 07/20 18:43
63Fysy2003: 樂打擊只剩下長打 07/20 18:43
64Fb36252s: 變形金達 07/20 18:43
65Flmf770410: 聽到蔡失望的聲音就是爽 07/20 18:43
66Fymca0135: 要換投了 07/20 18:43
67Fghit699: 祖傑~ 07/20 18:43
68FDarkKnight: 雙先發 07/20 18:43
69FKEVIN081691: 讚啦 把比賽拉回來囉 07/20 18:43
70Fb36252s: 牛彭小江準備好了 07/20 18:43
71Fshalu: 雙先發 這有創意XD 07/20 18:44
72Fcathych: 水! 07/20 18:44
73Ftome1019: 廖真的投的不怎樣啊!靠主審而已! 07/20 18:44
74Fysy2003: 被隊友搞的獅隊限定本土ace 07/20 18:44
75Fr51303: 親王加油 這局至少追平吧 07/20 18:44
76Fshalu: 蔡鍾突然安靜起來 XD 07/20 18:44
77Fwengbenson: 打擊至少有回應 07/20 18:44
78Fysy2003: 廖這的很怕被打 07/20 18:44
79Fysy2003: 真的 07/20 18:44
80Flmf770410: 炸他 07/20 18:44
81Fymca0135: 不舉耶XD 07/20 18:45
82Fshalu: 好個屁 但投得不錯 忍得也不錯 07/20 18:45
83Ftsukinohi: 炸裂樓下800p 07/20 18:45
84Fysy2003: 丟的頗閃的+搭配變形護航07/20 18:45
85Fkiller1: 廖投很好 邊邊角角主審都愛 07/20 18:45
86Fshalu: 親王的狀況感覺不錯 07/20 18:46
87Fysy2003: 看他能吃二軍,但一軍球威不夠就知道 07/20 18:46
88Foceanman: 主審要不要吃X 07/20 18:46
89Fgirl10319: 國龍 K 07/20 18:46
※ 編輯: girl10319 (39.10.168.8 臺灣), 07/20/2019 18:47:13
90FKEVIN081691: 炸他 07/20 18:46
91Fdanleo: 主審又助攻一次 07/20 18:47
92Fweight0513: 打到壞球 07/20 18:47
93Fshalu: 說真的 主審的好球帶 我真的有點不予置評 07/20 18:47
94Ftimnice: 前一球太扯 07/20 18:47
95Fueiueiuei: ....... 07/20 18:47
96Flmf770410: 呵。 07/20 18:47
97Fid543: 好球帶看不懂= = 07/20 18:47
98Froy0929: 換江16 07/20 18:47
99Fpikaholo33: 換小江 07/20 18:47
100Fjulienosmile: 今天是變形金剛跟七龍珠聯名主題日嗎 07/20 18:47
101Fgirl10319: 不能討論主審啊,我看上一篇好幾個說投的爛不要怪主審 07/20 18:48
102FSunSky0126: 是怎樣…… 07/20 18:48
103Ffaifai628: 前一球好球扯、裁判助攻了 下半局最好就一樣 07/20 18:48
104Fjasenkey: 靠主審沒錯 他很多變化球邊角偏壞都撿,但沒辦法,抱怨 07/20 18:48
105Fjasenkey: 也不能改變事實 07/20 18:48
106FSunSky0126: 低到不可思議 07/20 18:48
107Fshalu: 如果標準統一 我相信都投邊角和攻擊好球帶的承晏會投的不錯 07/20 18:48
108Fyofumi: 國龍今天好暴躁 07/20 18:49
109Fshalu: 辰 07/20 18:50

最新熱門文章